<?xml version="1.0"?>
<gpx xmlns="http://www.topografix.com/GPX/1/1" xmlns:xsi="http://www.w3.org/2001/XMLSchema-instance" version="1.1" creator="GPX RubyGem 1.0.0 -- http://dougfales.github.io/gpx/" xsi:schemaLocation="http://www.topografix.com/GPX/1/1 http://www.topografix.com/GPX/1/1/gpx.xsd">
  <metadata>
    <name/>
    <time>2026-05-09T20:18:22+00:00</time>
    <bound minlat="90.0" minlon="180.0" maxlat="-90.0" maxlon="-180.0"/>
  </metadata>
  <trk>
    <name/>
    <trkseg>
      <trkpt lat="51.026357" lon="8.522831">
        <time>1970-01-01T00:00:00+00:00</time>
        <ele>473.0</ele>
      </trkpt>
      <trkpt lat="51.026376" lon="8.523005">
        <time>1970-01-01T00:00:00+00:00</time>
        <ele>474.0</ele>
      </trkpt>
      <trkpt lat="51.026447" lon="8.52298">
        <time>1970-01-01T00:00:00+00:00</time>
        <ele>471.0</ele>
      </trkpt>
      <trkpt lat="51.026496" lon="8.522967">
        <time>1970-01-01T00:00:00+00:00</time>
        <ele>469.0</ele>
      </trkpt>
      <trkpt lat="51.026514" lon="8.523129">
        <time>1970-01-01T00:00:00+00:00</time>
        <ele>470.0</ele>
      </trkpt>
      <trkpt lat="51.026525" lon="8.523234">
        <time>1970-01-01T00:00:00+00:00</time>
        <ele>471.0</ele>
      </trkpt>
      <trkpt lat="51.026564" lon="8.524196">
        <time>1970-01-01T00:00:00+00:00</time>
        <ele>478.0</ele>
      </trkpt>
      <trkpt lat="51.026574" lon="8.525087">
        <time>1970-01-01T00:00:00+00:00</time>
        <ele>475.0</ele>
      </trkpt>
      <trkpt lat="51.02649" lon="8.525084">
        <time>1970-01-01T00:00:00+00:00</time>
        <ele>476.0</ele>
      </trkpt>
      <trkpt lat="51.026307" lon="8.525077">
        <time>1970-01-01T00:00:00+00:00</time>
        <ele>480.0</ele>
      </trkpt>
      <trkpt lat="51.026281" lon="8.525074">
        <time>1970-01-01T00:00:00+00:00</time>
        <ele>481.0</ele>
      </trkpt>
      <trkpt lat="51.026206" lon="8.52524">
        <time>1970-01-01T00:00:00+00:00</time>
        <ele>480.0</ele>
      </trkpt>
      <trkpt lat="51.026095" lon="8.525487">
        <time>1970-01-01T00:00:00+00:00</time>
        <ele>479.0</ele>
      </trkpt>
      <trkpt lat="51.026017" lon="8.525615">
        <time>1970-01-01T00:00:00+00:00</time>
        <ele>478.0</ele>
      </trkpt>
      <trkpt lat="51.025931" lon="8.525694">
        <time>1970-01-01T00:00:00+00:00</time>
        <ele>477.0</ele>
      </trkpt>
      <trkpt lat="51.025479" lon="8.525761">
        <time>1970-01-01T00:00:00+00:00</time>
        <ele>478.0</ele>
      </trkpt>
      <trkpt lat="51.025479" lon="8.525761">
        <time>1970-01-01T00:00:00+00:00</time>
        <ele>478.0</ele>
      </trkpt>
      <trkpt lat="51.025931" lon="8.525694">
        <time>1970-01-01T00:00:00+00:00</time>
        <ele>477.0</ele>
      </trkpt>
      <trkpt lat="51.026017" lon="8.525615">
        <time>1970-01-01T00:00:00+00:00</time>
        <ele>478.0</ele>
      </trkpt>
      <trkpt lat="51.026095" lon="8.525487">
        <time>1970-01-01T00:00:00+00:00</time>
        <ele>479.0</ele>
      </trkpt>
      <trkpt lat="51.026206" lon="8.52524">
        <time>1970-01-01T00:00:00+00:00</time>
        <ele>480.0</ele>
      </trkpt>
      <trkpt lat="51.026281" lon="8.525074">
        <time>1970-01-01T00:00:00+00:00</time>
        <ele>481.0</ele>
      </trkpt>
      <trkpt lat="51.026211" lon="8.524875">
        <time>1970-01-01T00:00:00+00:00</time>
        <ele>485.0</ele>
      </trkpt>
      <trkpt lat="51.026182" lon="8.524601">
        <time>1970-01-01T00:00:00+00:00</time>
        <ele>488.0</ele>
      </trkpt>
      <trkpt lat="51.026052" lon="8.523763">
        <time>1970-01-01T00:00:00+00:00</time>
        <ele>490.0</ele>
      </trkpt>
      <trkpt lat="51.02592" lon="8.523322">
        <time>1970-01-01T00:00:00+00:00</time>
        <ele>492.0</ele>
      </trkpt>
      <trkpt lat="51.025743" lon="8.52282">
        <time>1970-01-01T00:00:00+00:00</time>
        <ele>494.0</ele>
      </trkpt>
      <trkpt lat="51.02583" lon="8.522853">
        <time>1970-01-01T00:00:00+00:00</time>
        <ele>491.0</ele>
      </trkpt>
      <trkpt lat="51.025995" lon="8.522947">
        <time>1970-01-01T00:00:00+00:00</time>
        <ele>486.0</ele>
      </trkpt>
      <trkpt lat="51.026239" lon="8.523014">
        <time>1970-01-01T00:00:00+00:00</time>
        <ele>479.0</ele>
      </trkpt>
      <trkpt lat="51.026514" lon="8.523129">
        <time>1970-01-01T00:00:00+00:00</time>
        <ele>470.0</ele>
      </trkpt>
      <trkpt lat="51.026496" lon="8.522967">
        <time>1970-01-01T00:00:00+00:00</time>
        <ele>469.0</ele>
      </trkpt>
      <trkpt lat="51.026447" lon="8.52298">
        <time>1970-01-01T00:00:00+00:00</time>
        <ele>471.0</ele>
      </trkpt>
      <trkpt lat="51.026376" lon="8.523005">
        <time>1970-01-01T00:00:00+00:00</time>
        <ele>474.0</ele>
      </trkpt>
      <trkpt lat="51.026357" lon="8.522831">
        <time>1970-01-01T00:00:00+00:00</time>
        <ele>473.0</ele>
      </trkpt>
    </trkseg>
  </trk>
</gpx>
